Simultaneous Nadir Overpasses (SNOs) Predictions

Prediction of SNOs between GOES-16 and NOAA-19 Satellite Orbit:

Table of predicted SNOs for the next 14.0 days since TLE Epoch: 2/17/2017
Index Date Time (GOES-16) GOES-16 Lat,Lon NOAA-19 Lat,Lon Distance(km) Time Diff (sec)
1 02/17/2017 21:10:11 -0.01, -89.48 -0.51, -91.72 255.41 80
2 02/18/2017 21:01:26 -0.01, -89.48 0.12, -88.94 61.79 80
3 02/19/2017 20:50:00 -0.00, -89.48 0.74, -86.15 379.03 80
4 02/22/2017 09:11:41 -0.00, -89.49 0.41, -91.33 209.40 80
5 02/23/2017 08:57:36 -0.01, -89.49 -0.23, -88.54 107.92 80
6 02/24/2017 08:46:10 -0.01, -89.49 -0.87, -85.76 425.34 80
7 02/25/2017 21:19:16 0.01, -89.48 -0.96, -93.70 481.75 80
8 02/26/2017 21:07:50 0.01, -89.49 -0.33, -90.92 164.06 80
9 02/27/2017 20:59:05 0.01, -89.49 0.30, -88.14 153.77 80
10 02/28/2017 20:47:40 0.01, -89.50 0.99, -85.37 471.60 80
11 03/02/2017 09:20:43 -0.01, -89.52 0.87, -93.30 431.80 80
12 03/03/2017 09:09:18 -0.02, -89.52 0.22, -90.52 113.90 80




NCC Satellite Simultaneous Nadir Overpasses (SNOs) Prediction Service
